Home   Weather   West Covina   Past weeks

Flag for USA Past Weather in West Covina, California, USA — Yesterday and Last 2 Weeks

66 °F

Passing clouds.

Feels Like: 66 °F
Forecast: 63 / 75 °F
Wind: No wind

Location: Fullerton Municipal Airport

Current Time: Oct 28, 2016 at 3:24:15 AM

Latest Report: Oct 28, 2016 at 2:53 AM

Visibility: 10 mi

Pressure: 29.91 "Hg

Humidity: 68%

Dew Point: 55 °F

Location of West CovinaLocation

Past Weather in West Covina — Graph


West Covina Temperature Yesterday

Maximum temperature yesterday: 82 °F (at 2:53 PM)
Minimum temperature yesterday: 61 °F (at 4:53 AM)
Average temperature yesterday: 70 °F

High & Low Weather Summary for the Past Weeks

High100 °F (Oct 20, 3:53 PM)94% (Oct 17, 4:53 AM)30.12 "Hg (Oct 17, 4:53 AM)
Low55 °F (Oct 13, 6:53 AM)3% (Oct 20, 2:53 PM)29.79 "Hg (Oct 21, 4:53 PM)
Average70 °F61%29.95 "Hg
* Reported Oct 13 1:53 AM — Oct 28 1:53 AM, West Covina, Weather by CustomWeather, © 2016

Note: Actual official high and low records may vary slightly from our data, if they occured in-between our weather recording intervals... More about our weather records


West Covina Weather History for the Previous 24 Hours

Scroll right to see more
Time TempWeatherWind HumidityBarometerVisibility
1:53 AM
Fri, Oct 28
66 °FOvercast.No wind70%29.90 "Hg10 mi
12:53 AM67 °FClear.No wind66%29.88 "Hg10 mi
11:53 PM
Thu, Oct 27
67 °FClear.No wind66%29.86 "Hg10 mi
10:53 PM69 °FClear.3 mph55%29.87 "Hg10 mi
9:53 PM71 °FClear.No wind49%29.86 "Hg10 mi
8:53 PM71 °FClear.No wind45%29.86 "Hg10 mi
7:53 PM70 °FClear.6 mph53%29.87 "Hg10 mi
6:53 PM75 °FClear.7 mph58%29.85 "Hg10 mi
5:53 PM77 °FSunny.3 mph56%29.83 "Hg8 mi
4:53 PM79 °FLight rain. Passing clouds.3 mph50%29.83 "Hg9 mi
3:53 PM80 °FSunny.5 mph49%29.87 "Hg8 mi
2:53 PM82 °FSunny.No wind35%29.87 "Hg8 mi
1:53 PM81 °FSunny.No wind38%29.89 "Hg7 mi
12:53 PM79 °FSunny.3 mph45%29.93 "Hg6 mi
11:53 AM77 °FSunny.No wind48%29.94 "Hg6 mi
10:53 AM73 °FSunny.No wind55%29.97 "Hg6 mi
9:53 AM68 °FSunny.No wind68%29.99 "Hg6 mi
8:53 AM65 °FSunny.No wind78%29.99 "Hg8 mi
7:53 AM61 °FSunny.No wind83%29.98 "Hg9 mi
6:53 AM61 °FClear.No wind87%29.96 "Hg10 mi
5:53 AM61 °FClear.No wind83%29.95 "Hg10 mi
4:53 AM61 °FClear.No wind83%29.94 "Hg10 mi
3:53 AM62 °FClear.No wind83%29.95 "Hg10 mi
Weather by CustomWeather, © 2016

See weather overviewHow to use our weather pages